Hourly Weather Bolshoe Ababe

Today, 17 June, Thursday

Time Temperature Precipitation Wind Pressure Humidity
00:00 +12°C° 0 mm 1 mps 754 mmHg 71%
01:00 +11°C° 0 mm 1 mps 754 mmHg 73%
02:00 +10°C° 0 mm 0 mps 754 mmHg 75%
03:00 +11°C° 0 mm 0 mps 755 mmHg 75%
04:00 +11°C° 0 mm 0 mps 755 mmHg 76%
05:00 +12°C° 0 mm 0 mps 755 mmHg 76%
06:00 +15°C° 0 mm 1 mps 755 mmHg 70%
07:00 +18°C° 0 mm 1 mps 755 mmHg 64%
08:00 +20°C° 0 mm 1 mps 756 mmHg 58%
09:00 +21°C° 0 mm 1 mps 756 mmHg 54%
10:00 +23°C° 0 mm 2 mps 756 mmHg 51%
11:00 +24°C° 0 mm 2 mps 756 mmHg 47%
12:00 +24°C° 0 mm 2 mps 756 mmHg 46%
13:00 +25°C° 0 mm 2 mps 756 mmHg 44%
14:00 +26°C° 0 mm 2 mps 756 mmHg 43%
15:00 +25°C° 0 mm 2 mps 756 mmHg 45%
16:00 +25°C° 0 mm 1 mps 756 mmHg 46%
17:00 +25°C° 0 mm 1 mps 756 mmHg 47%
18:00 +24°C° 0 mm 1 mps 756 mmHg 55%
19:00 +22°C° 0 mm 1 mps 756 mmHg 64%
20:00 +20°C° 0 mm 1 mps 756 mmHg 72%
21:00 +19°C° 0 mm 1 mps 756 mmHg 73%
22:00 +18°C° 0 mm 1 mps 756 mmHg 75%
23:00 +16°C° 0 mm 1 mps 756 mmHg 76%

Tomorrow, 18 June, Friday

Time Temperature Precipitation Wind Pressure Humidity
00:00 +15°C° 0 mm 2 mps 756 mmHg 78%
01:00 +15°C° 0 mm 2 mps 756 mmHg 81%
02:00 +14°C° 0 mm 2 mps 756 mmHg 83%
03:00 +15°C° 0 mm 2 mps 756 mmHg 84%
04:00 +15°C° 0 mm 2 mps 756 mmHg 85%
05:00 +15°C° 0 mm 2 mps 757 mmHg 86%
06:00 +17°C° 0 mm 2 mps 757 mmHg 80%
07:00 +19°C° 0 mm 2 mps 757 mmHg 73%
08:00 +23°C° 0 mm 2 mps 757 mmHg 67%
09:00 +24°C° 0 mm 3 mps 757 mmHg 62%
10:00 +25°C° 0 mm 3 mps 756 mmHg 57%
11:00 +26°C° 0 mm 3 mps 756 mmHg 52%
12:00 +27°C° 0 mm 3 mps 756 mmHg 50%
13:00 +27°C° 0 mm 3 mps 756 mmHg 48%
14:00 +28°C° 0 mm 3 mps 756 mmHg 47%
15:00 +28°C° 0 mm 3 mps 755 mmHg 49%
16:00 +27°C° 0 mm 3 mps 755 mmHg 50%
17:00 +27°C° 0 mm 2 mps 755 mmHg 52%
18:00 +26°C° 0 mm 2 mps 755 mmHg 60%
19:00 +24°C° 0 mm 2 mps 755 mmHg 69%
20:00 +21°C° 0 mm 2 mps 755 mmHg 77%
21:00 +20°C° 0 mm 2 mps 755 mmHg 81%
22:00 +19°C° 0 mm 2 mps 755 mmHg 85%
23:00 +17°C° 0 mm 2 mps 755 mmHg 88%

Day after tomorrow, 19 June, Saturday

Time Temperature Precipitation Wind Pressure Humidity
00:00 +17°C° 0 mm 2 mps 755 mmHg 89%
01:00 +16°C° 0 mm 2 mps 755 mmHg 90%
02:00 +16°C° 0 mm 2 mps 755 mmHg 91%
03:00 +16°C° 0 mm 2 mps 755 mmHg 91%
04:00 +16°C° 0 mm 2 mps 755 mmHg 90%
05:00 +17°C° 0 mm 2 mps 755 mmHg 89%
06:00 +19°C° 0 mm 2 mps 755 mmHg 83%
07:00 +20°C° 0 mm 2 mps 755 mmHg 76%
08:00 +22°C° 0 mm 3 mps 755 mmHg 69%
09:00 +25°C° 0 mm 3 mps 755 mmHg 65%
10:00 +26°C° 0 mm 3 mps 755 mmHg 62%
11:00 +27°C° 0 mm 3 mps 755 mmHg 58%
12:00 +28°C° 0 mm 3 mps 755 mmHg 55%
13:00 +28°C° 0 mm 3 mps 755 mmHg 53%
14:00 +29°C° 0 mm 3 mps 754 mmHg 51%
15:00 +29°C° 0 mm 3 mps 754 mmHg 52%
16:00 +29°C° 0 mm 3 mps 754 mmHg 54%
17:00 +28°C° 0 mm 3 mps 753 mmHg 55%
18:00 +27°C° 0 mm 2 mps 753 mmHg 63%
19:00 +25°C° 0 mm 2 mps 753 mmHg 71%
20:00 +24°C° 0 mm 2 mps 753 mmHg 79%
21:00 +23°C° 0 mm 2 mps 753 mmHg 82%
22:00 +20°C° 0 mm 2 mps 753 mmHg 86%
23:00 +19°C° 0 mm 2 mps 753 mmHg 90%

20 June, Sunday

Time Temperature Precipitation Wind Pressure Humidity
00:00 +18°C° 0 mm 2 mps 754 mmHg 90%
01:00 +18°C° 0 mm 2 mps 754 mmHg 91%
02:00 +17°C° 0 mm 2 mps 754 mmHg 91%
03:00 +17°C° 0 mm 2 mps 753 mmHg 90%
04:00 +17°C° 0 mm 2 mps 753 mmHg 90%
05:00 +18°C° 0 mm 2 mps 753 mmHg 89%
06:00 +19°C° 0 mm 2 mps 753 mmHg 83%
07:00 +21°C° 0 mm 2 mps 753 mmHg 77%
08:00 +24°C° 0 mm 3 mps 753 mmHg 70%
09:00 +25°C° 0 mm 3 mps 753 mmHg 66%
10:00 +27°C° 0 mm 3 mps 753 mmHg 61%
11:00 +28°C° 0 mm 3 mps 753 mmHg 56%
12:00 +28°C° 0 mm 3 mps 753 mmHg 55%
13:00 +29°C° 0 mm 3 mps 753 mmHg 54%
14:00 +30°C° 0 mm 3 mps 752 mmHg 53%
15:00 +29°C° 0.3 mm 3 mps 752 mmHg 57%
16:00 +29°C° 0.3 mm 3 mps 752 mmHg 61%
17:00 +28°C° 0.3 mm 3 mps 752 mmHg 65%
18:00 +27°C° 0.2 mm 2 mps 752 mmHg 71%
19:00 +26°C° 0.2 mm 2 mps 751 mmHg 77%
20:00 +24°C° 0.2 mm 1 mps 751 mmHg 83%
21:00 +23°C° 0 mm 2 mps 751 mmHg 87%
22:00 +21°C° 0 mm 2 mps 752 mmHg 90%
23:00 +20°C° 0 mm 2 mps 752 mmHg 93%

21 June, Monday

Time Temperature Precipitation Wind Pressure Humidity
00:00 +20°C° 0 mm 2 mps 752 mmHg 94%
01:00 +20°C° 0 mm 2 mps 752 mmHg 95%
02:00 +19°C° 0 mm 2 mps 752 mmHg 95%
03:00 +19°C° 0 mm 2 mps 752 mmHg 95%
04:00 +19°C° 0 mm 2 mps 752 mmHg 94%
05:00 +19°C° 0 mm 2 mps 752 mmHg 94%
06:00 +21°C° 0 mm 2 mps 752 mmHg 86%
07:00 +22°C° 0 mm 3 mps 752 mmHg 79%
08:00 +25°C° 0 mm 3 mps 752 mmHg 72%
09:00 +26°C° 0 mm 3 mps 751 mmHg 66%
10:00 +27°C° 0 mm 4 mps 751 mmHg 60%
11:00 +28°C° 0 mm 4 mps 751 mmHg 53%
12:00 +29°C° 0 mm 4 mps 751 mmHg 51%
13:00 +30°C° 0 mm 4 mps 751 mmHg 48%
14:00 +32°C° 0 mm 4 mps 750 mmHg 45%
15:00 +30°C° 0 mm 4 mps 750 mmHg 48%
16:00 +30°C° 0 mm 4 mps 750 mmHg 52%
17:00 +30°C° 0 mm 4 mps 750 mmHg 55%
18:00 +28°C° 0 mm 3 mps 750 mmHg 61%
19:00 +26°C° 0 mm 3 mps 750 mmHg 67%
20:00 +24°C° 0 mm 3 mps 750 mmHg 73%
21:00 +22°C° 0 mm 3 mps 750 mmHg 76%
22:00 +22°C° 0 mm 3 mps 750 mmHg 79%
23:00 +21°C° 0 mm 3 mps 750 mmHg 82%

22 June, Tuesday

Time Temperature Precipitation Wind Pressure Humidity
00:00 +20°C° 0 mm 3 mps 750 mmHg 85%
01:00 +20°C° 0 mm 3 mps 749 mmHg 88%
02:00 +19°C° 0 mm 3 mps 749 mmHg 91%
03:00 +19°C° 0 mm 3 mps 749 mmHg 91%
04:00 +20°C° 0 mm 3 mps 749 mmHg 91%
05:00 +20°C° 0 mm 3 mps 749 mmHg 91%
06:00 +21°C° 0 mm 3 mps 749 mmHg 86%
07:00 +23°C° 0 mm 4 mps 749 mmHg 80%
08:00 +26°C° 0 mm 4 mps 749 mmHg 75%
09:00 +27°C° 0 mm 5 mps 749 mmHg 69%
10:00 +28°C° 0 mm 5 mps 749 mmHg 63%
11:00 +29°C° 0 mm 6 mps 749 mmHg 58%
12:00 +29°C° 0 mm 5 mps 749 mmHg 58%
13:00 +29°C° 0 mm 5 mps 749 mmHg 59%
14:00 +29°C° 0 mm 5 mps 748 mmHg 59%
15:00 +29°C° 0.1 mm 4 mps 749 mmHg 61%
16:00 +29°C° 0.1 mm 4 mps 749 mmHg 63%
17:00 +29°C° 0.1 mm 4 mps 749 mmHg 65%
18:00 +28°C° 0.2 mm 4 mps 748 mmHg 71%
19:00 +27°C° 0.2 mm 3 mps 748 mmHg 77%
20:00 +25°C° 0.2 mm 3 mps 748 mmHg 82%
21:00 +25°C° 0.2 mm 3 mps 748 mmHg 85%
22:00 +24°C° 0.2 mm 3 mps 748 mmHg 87%
23:00 +22°C° 0.2 mm 3 mps 749 mmHg 89%
Show more